Tracking 28766 objects as of 13-Apr-2024
HD Live streaming from Space Station
objects crossing your sky now

THOR ABLESTAR DEB

Track THOR ABLESTAR DEB now!
10-day predictions


NORAD ID: 6747
Int'l Code: 1961-015KM
Perigee: 819.3 km
Apogee: 1,024.4 km
Inclination: 66.6 °
Period: 103.3 minutes
Semi major axis: 7292 km
RCS: 0.0083 m2 (small)
Launch date: June 29, 1961
Source: United States (US)
Launch site: AIR FORCE EASTERN TEST RANGE (AFETR)

Note: This is SATELLITE DEBRIS
Your satellite tracking list
Your tracking list is empty




NASA's NSSDC Master Catalog

Two Line Element Set (TLE):
1  6747U 61015KM  24103.97850123  .00000399  00000-0  33275-3 0  9996
2  6747  66.6003 317.0494 0140662  11.9048 348.5298 13.93981290180886
Source of the keplerian elements: AFSPC